Location: Waco, TX
(31.5480°N, 97.1670°W)
Time: 22:25:33
(UTC-05:00)

ISS - Pass Details

Date: 25 May 2017
Orbit: 401 x 408 km, 51.6° (Epoch: 24 June)

Event Time Altitude Azimuth Distance (km) Brightness Sun altitude
Rises 05:01:17 0° 320° (NW) 2,324 0.0 -16.3°
Reaches altitude 10° 05:03:25 10° 326° (NW) 1,460 -1.0 -16.0°
Maximum altitude 05:06:36 48° 43° (NE) 533 -2.8 -15.4°
Drops below altitude 10° 05:09:45 10° 119° (ESE) 1,448 -0.7 -14.9°
Sets 05:11:52 0° 125° (SE) 2,302 0.3 -14.5°
